This demonstration page uses our WeatherBlox Daily Observations layout. Learn more.

Left ArrowRight Arrow

Hourly Observations for September 10, 2019

Temp ( °F °C ) Dew Point ( °F °C ) Humidity (%) Winds ( mph kmh ) Pressure ( in mb ) Visibility ( mi km ) Precip ( " mm )
12:59 am 00:59 Partly Cloudy 73 22.8 70 21.1 90 90 ESE 7 11 30.23 1024 10 16 0.00 0.00
1:59 am 01:59 Partly Cloudy 72 22.2 70 21.1 94 94 E 5 7 30.24 1024 10 16 0.00 0.00
2:59 am 02:59 Partly Cloudy 71 21.7 70 21.1 96 96 E 5 7 30.23 1024 10 16 0.00 0.00
3:59 am 03:59 Mostly Clear 71 21.7 70 21.1 96 96 ESE 3 6 30.24 1024 10 16 0.00 0.00
4:59 am 04:59 Partly Cloudy 70 21.1 70 21.1 100 100 Calm 30.25 1025 10 16 0.00 0.00
5:59 am 05:59 Partly Cloudy 72 22.2 70 21.1 94 94 NNE 5 7 30.27 1025 10 16 0.00 0.00
6:59 am 06:59 Mostly Cloudy 72 22.2 70 21.1 94 94 ENE 6 9 30.28 1026 10 16 0.00 0.00
7:41 am 07:41 Mostly Cloudy 73 22.8 70 21.1 90 90 NE 7 11 30.30 1026 10 16 0.00 0.00
7:59 am 07:59 Mostly Cloudy 74 23.3 70 21.1 88 88 NE 9 15 30.30 1026 10 16 0.00 0.00
8:49 am 08:49 Mostly Cloudy 75 23.9 70 21.1 84 84 E 12 19 30.32 1027 10 16 0.00 0.00
8:59 am 08:59 Mostly Cloudy 76 24.4 69 20.6 79 79 ENE 9 15 30.32 1027 10 16 0.00 0.00
9:59 am 09:59 Mostly Cloudy 77 25 69 20.6 77 77 E 12 19 30.34 1027 10 16 0.00 0.00
10:59 am 10:59 Mostly Cloudy 77 25 69 20.6 77 77 E 9 15 30.34 1027 10 16 0.00 0.00
11:59 am 11:59 Mostly Cloudy 79 26.1 69 20.6 72 72 E 14 22 30.33 1027 10 16 0.00 0.00
12:59 pm 12:59 Mostly Cloudy 78 25.6 69 20.6 74 74 E 10 17 30.33 1027 10 16 0.00 0.00
1:59 pm 13:59 Partly Cloudy 79 26.1 69 20.6 72 72 ENE 12 19 30.31 1027 10 16 0.00 0.00
2:59 pm 14:59 Partly Cloudy 79 26.1 70 21.1 74 74 ENE 12 19 30.31 1026 10 16 0.00 0.00
3:59 pm 15:59 Partly Cloudy 79 26.1 69 20.6 72 72 ENE 10 17 30.30 1026 10 16 0.00 0.00
4:59 pm 16:59 Partly Cloudy 78 25.6 69 20.6 74 74 ENE 12 19 30.29 1026 10 16 0.00 0.00
5:59 pm 17:59 Mostly Sunny 77 25 69 20.6 77 77 ENE 10 17 30.29 1026 10 16 0.00 0.00
6:59 pm 18:59 Mostly Sunny 75 23.9 69 20.6 82 82 E 7 11 30.29 1026 10 16 0.00 0.00
7:59 pm 19:59 Mostly Clear 73 22.8 69 20.6 87 87 E 6 9 30.29 1026 10 16 0.00 0.00
8:59 pm 20:59 Mostly Clear 72 22.2 69 20.6 91 91 ESE 5 7 30.29 1026 10 16 0.00 0.00
9:59 pm 21:59 Mostly Clear 71 21.7 69 20.6 94 94 Calm 30.29 1026 10 16 0.00 0.00
10:59 pm 22:59 Clear 70 21.1 69 20.6 97 97 SE 3 6 30.29 1026 10 16 0.00 0.00
11:59 pm 23:59 Clear 70 21.1 69 20.6 97 97 SE 3 6 30.29 1026 10 16 0.00 0.00

Powered by AerisWeather